When you browse on this site, cookies collect data to enhance your experience and personalize the content and advertising you see.
Visit our Privacy Policy to learn more. By continuing to use the site, you agree to this use of cookies and data.

Meteo pe oră la Ascheffel

Astăzi, 11 August, Marţi

Timp Temperatura Precipitaţii Vânt Presiune Umiditate
00:00 +20°C° 0 mm 4 m/s 762 mmHg 90%
01:00 +20°C° 0 mm 4 m/s 763 mmHg 93%
02:00 +19°C° 0 mm 4 m/s 763 mmHg 94%
03:00 +19°C° 0 mm 4 m/s 762 mmHg 94%
04:00 +19°C° 0 mm 4 m/s 762 mmHg 95%
05:00 +20°C° 0 mm 4 m/s 763 mmHg 92%
06:00 +21°C° 0 mm 4 m/s 763 mmHg 89%
07:00 +21°C° 0 mm 4 m/s 763 mmHg 85%
08:00 +23°C° 0 mm 4 m/s 763 mmHg 79%
09:00 +26°C° 0 mm 4 m/s 763 mmHg 73%
10:00 +27°C° 0 mm 4 m/s 763 mmHg 67%
11:00 +28°C° 0 mm 5 m/s 763 mmHg 62%
12:00 +29°C° 0 mm 5 m/s 764 mmHg 57%
13:00 +30°C° 0 mm 5 m/s 764 mmHg 52%
14:00 +30°C° 0 mm 5 m/s 763 mmHg 53%
15:00 +29°C° 0 mm 6 m/s 763 mmHg 54%
16:00 +29°C° 0 mm 6 m/s 763 mmHg 55%
17:00 +27°C° 0 mm 6 m/s 763 mmHg 60%
18:00 +26°C° 0 mm 6 m/s 763 mmHg 64%
19:00 +23°C° 0 mm 6 m/s 763 mmHg 68%
20:00 +22°C° 0 mm 6 m/s 763 mmHg 70%
21:00 +21°C° 0 mm 5 m/s 763 mmHg 72%
22:00 +20°C° 0 mm 5 m/s 763 mmHg 74%
23:00 +19°C° 0 mm 5 m/s 763 mmHg 74%

Mâine, 12 August, Miercuri

Timp Temperatura Precipitaţii Vânt Presiune Umiditate
00:00 +19°C° 0 mm 5 m/s 763 mmHg 74%
01:00 +17°C° 0 mm 5 m/s 763 mmHg 75%
02:00 +18°C° 0 mm 4 m/s 763 mmHg 77%
03:00 +17°C° 0 mm 4 m/s 763 mmHg 79%
04:00 +17°C° 0 mm 4 m/s 763 mmHg 82%
05:00 +18°C° 0 mm 4 m/s 763 mmHg 80%
06:00 +19°C° 0 mm 5 m/s 763 mmHg 78%
07:00 +19°C° 0 mm 5 m/s 763 mmHg 76%
08:00 +21°C° 0 mm 5 m/s 763 mmHg 71%
09:00 +22°C° 0 mm 5 m/s 763 mmHg 65%
10:00 +25°C° 0 mm 5 m/s 763 mmHg 59%
11:00 +26°C° 0 mm 6 m/s 763 mmHg 56%
12:00 +27°C° 0 mm 6 m/s 763 mmHg 53%
13:00 +27°C° 0 mm 6 m/s 762 mmHg 49%
14:00 +27°C° 0 mm 6 m/s 762 mmHg 50%
15:00 +27°C° 0 mm 6 m/s 762 mmHg 51%
16:00 +27°C° 0 mm 6 m/s 762 mmHg 52%
17:00 +24°C° 0 mm 6 m/s 761 mmHg 58%
18:00 +23°C° 0 mm 5 m/s 761 mmHg 64%
19:00 +22°C° 0 mm 5 m/s 761 mmHg 69%
20:00 +21°C° 0 mm 5 m/s 761 mmHg 73%
21:00 +20°C° 0 mm 5 m/s 761 mmHg 76%
22:00 +20°C° 0 mm 5 m/s 761 mmHg 79%
23:00 +19°C° 0 mm 5 m/s 761 mmHg 81%

Poimâine, 13 August, Joi

Timp Temperatura Precipitaţii Vânt Presiune Umiditate
00:00 +19°C° 0 mm 5 m/s 761 mmHg 82%
01:00 +17°C° 0 mm 5 m/s 761 mmHg 83%
02:00 +18°C° 0 mm 4 m/s 760 mmHg 84%
03:00 +18°C° 0 mm 4 m/s 760 mmHg 84%
04:00 +17°C° 0 mm 4 m/s 760 mmHg 84%
05:00 +18°C° 0 mm 4 m/s 759 mmHg 79%
06:00 +19°C° 0 mm 5 m/s 759 mmHg 75%
07:00 +20°C° 0 mm 5 m/s 759 mmHg 70%
08:00 +22°C° 0 mm 5 m/s 759 mmHg 64%
09:00 +25°C° 0 mm 5 m/s 759 mmHg 59%
10:00 +26°C° 0 mm 6 m/s 759 mmHg 53%
11:00 +27°C° 0 mm 6 m/s 759 mmHg 52%
12:00 +28°C° 0 mm 6 m/s 759 mmHg 50%
13:00 +29°C° 0 mm 6 m/s 758 mmHg 48%
14:00 +29°C° 0 mm 6 m/s 758 mmHg 50%
15:00 +29°C° 0 mm 6 m/s 758 mmHg 51%
16:00 +29°C° 0 mm 6 m/s 757 mmHg 52%
17:00 +27°C° 0.1 mm 6 m/s 757 mmHg 58%
18:00 +26°C° 0.1 mm 5 m/s 757 mmHg 64%
19:00 +23°C° 0.1 mm 5 m/s 757 mmHg 70%
20:00 +22°C° 0.2 mm 5 m/s 757 mmHg 75%
21:00 +21°C° 0.2 mm 5 m/s 757 mmHg 79%
22:00 +20°C° 0.2 mm 5 m/s 757 mmHg 84%
23:00 +20°C° 0 mm 4 m/s 757 mmHg 86%

14 August, Vineri

Timp Temperatura Precipitaţii Vânt Presiune Umiditate
00:00 +19°C° 0 mm 4 m/s 757 mmHg 87%
01:00 +19°C° 0 mm 3 m/s 757 mmHg 89%
02:00 +19°C° 0 mm 3 m/s 756 mmHg 90%
03:00 +19°C° 0 mm 3 m/s 756 mmHg 91%
04:00 +18°C° 0 mm 2 m/s 756 mmHg 93%
05:00 +19°C° 0 mm 2 m/s 756 mmHg 91%
06:00 +20°C° 0 mm 2 m/s 756 mmHg 89%
07:00 +21°C° 0 mm 2 m/s 756 mmHg 87%
08:00 +22°C° 0.1 mm 3 m/s 756 mmHg 81%
09:00 +25°C° 0.1 mm 3 m/s 756 mmHg 76%
10:00 +27°C° 0.1 mm 3 m/s 757 mmHg 70%
11:00 +27°C° 0.2 mm 3 m/s 756 mmHg 68%
12:00 +28°C° 0.2 mm 3 m/s 756 mmHg 67%
13:00 +28°C° 0.2 mm 3 m/s 756 mmHg 66%
14:00 +28°C° 0.5 mm 3 m/s 756 mmHg 66%
15:00 +28°C° 0.5 mm 3 m/s 756 mmHg 67%
16:00 +28°C° 0.5 mm 3 m/s 756 mmHg 68%
17:00 +26°C° 0.6 mm 3 m/s 756 mmHg 72%
18:00 +25°C° 0.6 mm 3 m/s 756 mmHg 77%
19:00 +22°C° 0.6 mm 3 m/s 756 mmHg 81%
20:00 +21°C° 0.1 mm 3 m/s 756 mmHg 84%
21:00 +20°C° 0.1 mm 3 m/s 757 mmHg 87%
22:00 +19°C° 0.1 mm 3 m/s 757 mmHg 89%
23:00 +19°C° 0 mm 3 m/s 757 mmHg 90%

15 August, Sâmbătă

Timp Temperatura Precipitaţii Vânt Presiune Umiditate
00:00 +19°C° 0 mm 3 m/s 757 mmHg 91%
01:00 +19°C° 0 mm 3 m/s 757 mmHg 92%
02:00 +19°C° 0 mm 3 m/s 757 mmHg 92%
03:00 +19°C° 0 mm 3 m/s 757 mmHg 93%
04:00 +18°C° 0 mm 3 m/s 757 mmHg 93%
05:00 +19°C° 0 mm 3 m/s 757 mmHg 90%
06:00 +20°C° 0 mm 3 m/s 757 mmHg 87%
07:00 +21°C° 0 mm 3 m/s 757 mmHg 85%
08:00 +22°C° 0 mm 3 m/s 757 mmHg 78%
09:00 +25°C° 0 mm 3 m/s 758 mmHg 71%
10:00 +26°C° 0 mm 3 m/s 758 mmHg 64%
11:00 +27°C° 0 mm 4 m/s 758 mmHg 61%
12:00 +28°C° 0 mm 4 m/s 758 mmHg 57%
13:00 +29°C° 0 mm 4 m/s 758 mmHg 54%
14:00 +29°C° 0 mm 4 m/s 758 mmHg 54%
15:00 +29°C° 0 mm 4 m/s 758 mmHg 54%
16:00 +29°C° 0 mm 5 m/s 757 mmHg 53%
17:00 +27°C° 0 mm 5 m/s 757 mmHg 56%
18:00 +25°C° 0 mm 4 m/s 757 mmHg 59%
19:00 +23°C° 0 mm 4 m/s 758 mmHg 62%
20:00 +22°C° 0 mm 4 m/s 758 mmHg 66%
21:00 +21°C° 0 mm 4 m/s 758 mmHg 70%
22:00 +19°C° 0 mm 4 m/s 758 mmHg 74%
23:00 +19°C° 0 mm 4 m/s 758 mmHg 77%

16 August, Duminică

Timp Temperatura Precipitaţii Vânt Presiune Umiditate
00:00 +19°C° 0 mm 3 m/s 758 mmHg 80%
01:00 +18°C° 0 mm 3 m/s 758 mmHg 84%
02:00 +18°C° 0 mm 3 m/s 758 mmHg 85%
03:00 +18°C° 0 mm 3 m/s 758 mmHg 87%
04:00 +18°C° 0 mm 4 m/s 758 mmHg 88%
05:00 +19°C° 0 mm 4 m/s 758 mmHg 83%
06:00 +20°C° 0 mm 4 m/s 758 mmHg 78%
07:00 +20°C° 0 mm 4 m/s 758 mmHg 74%
08:00 +22°C° 0 mm 5 m/s 758 mmHg 67%
09:00 +25°C° 0 mm 5 m/s 758 mmHg 61%
10:00 +26°C° 0 mm 5 m/s 758 mmHg 55%
11:00 +27°C° 0 mm 5 m/s 758 mmHg 51%
12:00 +28°C° 0 mm 5 m/s 758 mmHg 48%
13:00 +29°C° 0 mm 5 m/s 758 mmHg 44%
14:00 +29°C° 0 mm 5 m/s 758 mmHg 45%
15:00 +29°C° 0 mm 5 m/s 758 mmHg 45%
16:00 +28°C° 0 mm 5 m/s 758 mmHg 46%
17:00 +27°C° 0 mm 5 m/s 758 mmHg 51%
18:00 +26°C° 0 mm 5 m/s 758 mmHg 57%
19:00 +23°C° 0 mm 5 m/s 758 mmHg 62%
20:00 +22°C° 0 mm 5 m/s 758 mmHg 65%
21:00 +21°C° 0 mm 5 m/s 758 mmHg 68%
22:00 +20°C° 0 mm 5 m/s 758 mmHg 72%
23:00 +20°C° 0 mm 4 m/s 758 mmHg 73%
Arată mai mult